Monroe, MI

11:04 AM EDT on August 17, 2017 (GMT -0400)
Custer

Weather History for KTTF - June, 2013

Change the Weather History Date:

Monday, June 24, 2013

  Actual Average Record
Temperature  
Mean Temperature 78 °F -  
Max Temperature 87 °F 81 °F 97 °F (1983)
Min Temperature 69 °F 61 °F 44 °F (1932)
Cooling Degree Days 13    
Growing Degree Days 28 (Base 50)    
Moisture  
Dew Point 69 °F    
Average Humidity 74    
Maximum Humidity 88    
Minimum Humidity 52    
Precipitation  
Precipitation 0.00 in - - ()
Sea Level Pressure  
Sea Level Pressure 30.02 in    
Wind  
Wind Speed 6 mph (SW)    
Max Wind Speed 15 mph    
Max Gust Speed 20 mph    
Visibility 9 miles    
Events Rain    
Averages and records for this station are not official NWS values.
T = Trace of Precipitation, MM = Missing Value Source: NWS Daily Summary

Daily Weather History Graph

Daily Weather History Graph

Search for Another Location

Airport or City:

Trip Planner

Search our weather history database for the weather conditions in past years. The results will help you decide how hot, cold, wet, or windy it might be!

Date:

Astronomy

Jun. 24, 2013 Rise Set
Actual Time 5:59 AM EDT 9:13 PM EDT
Civil Twilight 5:24 AM EDT 9:47 PM EDT
Nautical Twilight 4:40 AM EDT 10:31 PM EDT
Astronomical Twilight 3:46 AM EDT 11:25 PM EDT
Moon 10:12 PM EDT (6/24) 7:27 AM EDT (6/24)
Length of Visible Light 16h 22m
Length of Day
15h 13m
Full, 98% of the Moon is Illuminated
Jun 24
Full
Jun 30
Last Quarter
Jul 8
New
Jul 15
First Quarter
Jul 22
Full

Hourly Weather History & Observations

Time (EDT) Temp. Heat Index Dew Point Humidity Pressure Visibility Wind Dir Wind Speed Gust Speed Precip Events Conditions
12:12 AM 69.8 °F - 66.2 °F 88% 30.00 in 10.0 mi Calm Calm - N/A   Clear
12:32 AM 69.8 °F - 66.2 °F 88% 29.99 in 7.0 mi Calm Calm - N/A   Clear
12:52 AM 71.6 °F - 66.2 °F 83% 30.02 in 10.0 mi SSW 8.1 mph - N/A   Clear
1:12 AM 71.6 °F - 66.2 °F 83% 30.03 in 10.0 mi WSW 6.9 mph - N/A   Clear
1:32 AM 71.6 °F - 66.2 °F 83% 30.05 in 10.0 mi WSW 9.2 mph - N/A   Clear
1:52 AM 71.6 °F - 66.2 °F 83% 30.05 in 10.0 mi West 5.8 mph - N/A   Clear
2:12 AM 69.8 °F - 66.2 °F 88% 30.05 in 10.0 mi WSW 5.8 mph - N/A   Clear
2:32 AM 69.8 °F - 66.2 °F 88% 30.05 in 10.0 mi West 4.6 mph - N/A   Clear
2:52 AM 71.6 °F - 66.2 °F 83% 30.05 in 10.0 mi SW 3.5 mph - N/A   Clear
3:12 AM 71.6 °F - 66.2 °F 83% 30.05 in 10.0 mi SSW 4.6 mph - N/A   Clear
3:33 AM 69.8 °F - 66.2 °F 88% 30.06 in 7.0 mi SSW 4.6 mph - N/A   Clear
3:53 AM 69.8 °F - 66.2 °F 88% 30.06 in 7.0 mi SSW 4.6 mph - N/A   Clear
4:13 AM 69.8 °F - 66.2 °F 88% 30.05 in 7.0 mi SSW 3.5 mph - N/A   Clear
4:33 AM 69.8 °F - 66.2 °F 88% 30.06 in 7.0 mi SW 4.6 mph - N/A   Clear
4:53 AM 69.8 °F - 66.2 °F 88% 30.06 in 7.0 mi SW 3.5 mph - N/A   Clear
5:13 AM 69.8 °F - 66.2 °F 88% 30.06 in 7.0 mi SSW 4.6 mph - N/A   Clear
5:33 AM 69.8 °F - 66.2 °F 88% 30.06 in 7.0 mi SSW 3.5 mph - N/A   Clear
5:53 AM 69.8 °F - 66.2 °F 88% 30.06 in 5.0 mi SSW 3.5 mph - N/A   Clear
6:14 AM 69.8 °F - 66.2 °F 88% 30.06 in 4.0 mi SW 3.5 mph - N/A   Clear
6:34 AM 69.8 °F - 66.2 °F 88% 30.06 in 5.0 mi SSW 4.6 mph - N/A   Clear
6:54 AM 69.8 °F - 66.2 °F 88% 30.06 in 4.0 mi SSW 3.5 mph - N/A   Clear
7:14 AM 71.6 °F - 68.0 °F 88% 30.06 in 5.0 mi SSW 5.8 mph - N/A   Clear
7:34 AM 71.6 °F - 68.0 °F 88% 30.06 in 5.0 mi SSW 8.1 mph - N/A   Clear
7:54 AM 73.4 °F - 69.8 °F 88% 30.06 in 5.0 mi SSW 6.9 mph - N/A   Clear
8:14 AM 73.4 °F - 69.8 °F 88% 30.07 in 7.0 mi SSW 6.9 mph - N/A   Clear
8:34 AM 75.2 °F - 69.8 °F 83% 30.07 in 7.0 mi SW 8.1 mph - N/A   Clear
8:54 AM 75.2 °F - 69.8 °F 83% 30.08 in 7.0 mi SW 6.9 mph - N/A   Clear
9:14 AM 77.0 °F - 71.6 °F 83% 30.08 in 7.0 mi WSW 9.2 mph - N/A   Clear
9:35 AM 78.8 °F - 71.6 °F 78% 30.08 in 7.0 mi SW 8.1 mph - N/A   Clear
9:55 AM 78.8 °F - 71.6 °F 78% 30.08 in 10.0 mi WSW 15.0 mph 19.6 mph N/A   Clear
10:15 AM 80.6 °F 84.6 °F 71.6 °F 74% 30.08 in 10.0 mi SW 10.4 mph 16.1 mph N/A   Clear
10:35 AM 80.6 °F 84.6 °F 71.6 °F 74% 30.07 in 10.0 mi SW 10.4 mph - N/A   Clear
10:55 AM 82.4 °F 87.2 °F 71.6 °F 70% 30.07 in 10.0 mi WSW 12.7 mph 19.6 mph N/A   Clear
11:15 AM 82.4 °F 87.2 °F 71.6 °F 70% 30.07 in 10.0 mi WSW 10.4 mph - N/A   Clear
11:35 AM 82.4 °F 87.2 °F 71.6 °F 70% 30.07 in 10.0 mi SW 13.8 mph 17.3 mph N/A   Clear
11:55 AM 84.2 °F 89.6 °F 71.6 °F 66% 30.07 in 10.0 mi SW 11.5 mph - N/A   Clear
12:15 PM 84.2 °F 89.6 °F 71.6 °F 66% 30.07 in 10.0 mi SW 12.7 mph - N/A   Clear
12:30 PM 84.2 °F 89.6 °F 71.6 °F 66% 30.06 in 10.0 mi SW 10.4 mph 17.3 mph N/A   Clear
12:52 PM 86.0 °F 91.8 °F 71.6 °F 62% 30.06 in 10.0 mi WSW 12.7 mph - N/A   Scattered Clouds
1:12 PM 84.2 °F 89.6 °F 71.6 °F 66% 30.05 in 10.0 mi WSW 13.8 mph 18.4 mph N/A   Scattered Clouds
1:32 PM 86.0 °F 91.8 °F 71.6 °F 62% 30.05 in 10.0 mi WSW 13.8 mph 18.4 mph N/A   Scattered Clouds
1:52 PM 86.0 °F 90.4 °F 69.8 °F 58% 30.03 in 10.0 mi SW 10.4 mph - N/A   Clear
2:12 PM 86.0 °F 91.8 °F 71.6 °F 62% 30.02 in 10.0 mi SW 10.4 mph 17.3 mph N/A   Scattered Clouds
2:32 PM 86.0 °F 91.8 °F 71.6 °F 62% 30.02 in 10.0 mi WSW 10.4 mph - N/A   Clear
2:47 PM 84.2 °F 88.4 °F 69.8 °F 62% 30.01 in 10.0 mi SW 8.1 mph - N/A   Scattered Clouds
3:13 PM 86.0 °F 91.8 °F 71.6 °F 62% 30.00 in 10.0 mi SW 9.2 mph - N/A   Scattered Clouds
3:33 PM 84.2 °F 89.6 °F 71.6 °F 66% 29.98 in 10.0 mi WSW 10.4 mph - N/A   Clear
3:53 PM 87.8 °F 92.6 °F 69.8 °F 55% 29.98 in 10.0 mi SW 8.1 mph - N/A   Clear
4:13 PM 87.8 °F 92.6 °F 69.8 °F 55% 29.97 in 10.0 mi SW 9.2 mph - N/A   Clear
4:33 PM 87.8 °F 91.4 °F 68.0 °F 52% 29.97 in 10.0 mi SW 9.2 mph - N/A   Clear
4:53 PM 87.8 °F 92.6 °F 69.8 °F 55% 29.97 in 10.0 mi WSW 6.9 mph - N/A   Clear
5:14 PM 87.8 °F 92.6 °F 69.8 °F 55% 29.96 in 10.0 mi SSW 9.2 mph - N/A   Clear
5:34 PM 87.8 °F 92.6 °F 69.8 °F 55% 29.96 in 10.0 mi WSW 10.4 mph 17.3 mph N/A   Scattered Clouds
7:59 PM 84.2 °F 88.4 °F 69.8 °F 62% 29.95 in 10.0 mi SW 5.8 mph - N/A   Clear
8:20 PM 84.2 °F 88.4 °F 69.8 °F 62% 29.95 in 10.0 mi SW 6.9 mph - N/A   Clear
8:35 PM 84.2 °F 88.4 °F 69.8 °F 62% 29.95 in 10.0 mi SW 5.8 mph - N/A   Clear
8:55 PM 82.4 °F 86.3 °F 69.8 °F 66% 29.94 in 10.0 mi SSW 6.9 mph - N/A   Clear
9:15 PM 82.4 °F 86.3 °F 69.8 °F 66% 29.94 in 10.0 mi SW 8.1 mph - N/A   Clear
9:36 PM 82.4 °F 86.3 °F 69.8 °F 66% 29.94 in 10.0 mi SSW 8.1 mph - N/A   Clear
9:56 PM 80.6 °F 83.9 °F 69.8 °F 70% 29.94 in 10.0 mi SW 8.1 mph - N/A   Clear
10:16 PM 80.6 °F 83.9 °F 69.8 °F 70% 29.95 in 10.0 mi SW 8.1 mph - N/A   Clear
10:36 PM 80.6 °F 83.9 °F 69.8 °F 70% 29.95 in 10.0 mi SW 5.8 mph - N/A   Clear
10:56 PM 80.6 °F 83.9 °F 69.8 °F 70% 29.95 in 10.0 mi SSW 6.9 mph - N/A   Scattered Clouds
11:16 PM 80.6 °F 83.9 °F 69.8 °F 70% 29.95 in 10.0 mi SSW 5.8 mph - N/A   Clear
11:36 PM 80.6 °F 83.9 °F 69.8 °F 70% 29.95 in 10.0 mi SSW 6.9 mph - N/A   Clear
11:51 PM 80.6 °F 83.9 °F 69.8 °F 70% 29.95 in 10.0 mi SW 10.4 mph - N/A Rain Rain